Weather History for Kankakee, IL

Change the Weather History Date:

Monday, October 28, 2013

  Actual Average Record
Temperature  
Mean Temperature 44 °F -  
Max Temperature 60 °F 61 °F 77 °F (1989)
Min Temperature 28 °F 36 °F 26 °F (2008)
Degree Days  
Heating Degree Days 22    
Moisture  
Dew Point 34 °F    
Average Humidity 73    
Maximum Humidity 92    
Minimum Humidity 36    
Precipitation  
Precipitation 0.00 in - - ()
Sea Level Pressure  
Sea Level Pressure 30.23 in    
Wind  
Wind Speed 2 mph (NE)    
Max Wind Speed 12 mph    
Max Gust Speed 16 mph    
Visibility 10 miles    
Events      
Averages and records for this station are not official NWS values.
T = Trace of Precipitation, MM = Missing Value Source: NWS Daily Summary

Daily Weather History Graph

Daily Weather History Graph

Search for Another Location

Airport:

Trip Planner

Search our weather history database for the weather conditions in past years. The results will help you decide how hot, cold, wet, or windy it might be!

Date:

Astronomy

Oct. 28, 2013 Rise Set
Actual Time 7:17 AM CDT 5:51 PM CDT
Civil Twilight 6:49 AM CDT 6:20 PM CDT
Nautical Twilight 6:17 AM CDT 6:52 PM CDT
Astronomical Twilight 5:45 AM CDT 7:24 PM CDT
Moon 1:07 AM CDT (10/28) 2:36 PM CDT (10/28)
Length of Visible Light 11h 30m
Length of Day
10h 33m
Waning Crescent, 34% of the Moon is Illuminated
Oct 28
Waning Crescent
Nov 3
New
Nov 9
First Quarter
Nov 17
Full
Nov 25
Last Quarter

Hourly Weather History & Observations

Time (CDT) Temp. Windchill Dew Point Humidity Pressure Visibility Wind Dir Wind Speed Gust Speed Precip Events Conditions
12:15 AM 34.7 °F - 28.9 °F 79% 30.09 in 10.0 mi Calm Calm - N/A   Clear
12:35 AM 33.1 °F - 28.6 °F 84% 30.09 in 10.0 mi Calm Calm - N/A   Clear
12:55 AM 33.6 °F - 28.2 °F 81% 30.10 in 10.0 mi Calm Calm - N/A   Clear
1:15 AM 34.3 °F - 28.4 °F 79% 30.10 in 10.0 mi Calm Calm - N/A   Clear
1:35 AM 32.0 °F - 28.0 °F 85% 30.10 in 10.0 mi Calm Calm - N/A   Mostly Cloudy
1:55 AM 31.8 °F - 28.4 °F 87% 30.10 in 10.0 mi Calm Calm - N/A   Scattered Clouds
2:15 AM 32.4 °F - 28.8 °F 87% 30.11 in 10.0 mi Calm Calm - N/A   Clear
2:35 AM 31.3 °F - 28.2 °F 88% 30.10 in 10.0 mi Calm Calm - N/A   Clear
2:55 AM 30.2 °F - 27.3 °F 89% 30.11 in 10.0 mi Calm Calm - N/A   Clear
3:15 AM 31.5 °F - 27.5 °F 85% 30.11 in 10.0 mi Calm Calm - N/A   Clear
3:35 AM 29.8 °F - 26.8 °F 88% 30.12 in 10.0 mi Calm Calm - N/A   Clear
3:55 AM 29.8 °F - 27.0 °F 89% 30.12 in 10.0 mi Calm Calm - N/A   Clear
4:15 AM 29.8 °F - 26.8 °F 88% 30.12 in 10.0 mi Calm Calm - N/A   Clear
4:35 AM 29.3 °F - 27.1 °F 92% 30.12 in 10.0 mi Calm Calm - N/A   Clear
4:55 AM 30.0 °F - 27.1 °F 89% 30.13 in 10.0 mi Calm Calm - N/A   Clear
5:15 AM 29.7 °F - 27.1 °F 90% 30.14 in 10.0 mi Calm Calm - N/A   Clear
5:35 AM 29.1 °F - 26.4 °F 90% 30.14 in 10.0 mi Calm Calm - N/A   Clear
5:55 AM 29.5 °F - 26.6 °F 89% 30.15 in 10.0 mi Calm Calm - N/A   Clear
6:15 AM 29.5 °F - 26.6 °F 89% 30.16 in 10.0 mi Calm Calm - N/A   Clear
6:35 AM 28.8 °F - 26.2 °F 90% 30.16 in 10.0 mi Calm Calm - N/A   Clear
6:55 AM 28.6 °F - 26.1 °F 90% 30.18 in 10.0 mi Calm Calm - N/A   Clear
7:15 AM 32.7 °F - 28.8 °F 85% 30.20 in 10.0 mi Calm Calm - N/A   Clear
7:35 AM 30.7 °F 24.9 °F 27.3 °F 87% 30.20 in 10.0 mi SE 5.8 mph - N/A   Clear
7:55 AM 30.0 °F 26.5 °F 27.1 °F 89% 30.22 in 10.0 mi SE 3.5 mph - N/A   Clear
8:15 AM 32.0 °F - 29.5 °F 90% 30.22 in 10.0 mi Calm Calm - N/A   Clear
8:35 AM 34.5 °F - 32.0 °F 90% 30.22 in 10.0 mi Calm Calm - N/A   Clear
8:55 AM 39.7 °F - 32.7 °F 76% 30.23 in 10.0 mi Calm Calm - N/A   Clear
9:15 AM 41.7 °F - 34.2 °F 75% 30.23 in 10.0 mi Calm Calm - N/A   Clear
9:35 AM 44.4 °F - 34.5 °F 68% 30.24 in 10.0 mi Calm Calm - N/A   Clear
9:55 AM 48.0 °F - 34.2 °F 59% 30.25 in 10.0 mi North 4.6 mph - N/A   Clear
10:15 AM 48.9 °F - 33.8 °F 56% 30.25 in 10.0 mi NE 5.8 mph - N/A   Clear
10:35 AM 50.0 °F - 33.4 °F 53% 30.26 in 10.0 mi NE 3.5 mph - N/A   Clear
10:55 AM 52.2 °F - 33.1 °F 48% 30.26 in 10.0 mi NE 5.8 mph - N/A   Clear
11:15 AM 53.4 °F - 33.1 °F 46% 30.26 in 10.0 mi Calm Calm - N/A   Clear
11:35 AM 55.0 °F - 34.3 °F 46% 30.26 in 10.0 mi ENE 4.6 mph - N/A   Clear
11:55 AM 56.1 °F - 36.9 °F 48% 30.27 in 10.0 mi NNE 6.9 mph - N/A   Clear
12:15 PM 56.8 °F - 36.1 °F 46% 30.26 in 10.0 mi Calm Calm - N/A   Clear
12:35 PM 57.0 °F - 35.6 °F 45% 30.26 in 10.0 mi East 4.6 mph - N/A   Clear
12:55 PM 57.7 °F - 35.2 °F 43% 30.25 in 10.0 mi ENE 4.6 mph - N/A   Clear
1:15 PM 57.9 °F - 35.2 °F 43% 30.24 in 10.0 mi NE 3.5 mph - N/A   Clear
1:35 PM 59.5 °F - 35.6 °F 41% 30.23 in 10.0 mi Calm Calm - N/A   Clear
1:55 PM 59.2 °F - 34.5 °F 40% 30.23 in 10.0 mi Calm Calm - N/A   Clear
2:15 PM 59.7 °F - 35.8 °F 41% 30.23 in 10.0 mi East 4.6 mph - N/A   Clear
2:35 PM 59.0 °F - 33.1 °F 38% 30.23 in 10.0 mi Calm Calm - N/A   Clear
2:55 PM 59.0 °F - 33.3 °F 38% 30.23 in 10.0 mi Calm Calm - N/A   Clear
3:15 PM 59.7 °F - 32.5 °F 36% 30.23 in 7.0 mi Calm Calm - N/A   Clear
3:35 PM 59.7 °F - 32.9 °F 36% 30.23 in 10.0 mi Calm Calm - N/A   Clear
3:55 PM 59.7 °F - 33.1 °F 37% 30.24 in 10.0 mi ENE 3.5 mph - N/A   Clear
4:15 PM 59.9 °F - 32.7 °F 36% 30.24 in 10.0 mi NE 3.5 mph - N/A   Clear
4:35 PM 58.8 °F - 34.5 °F 40% 30.24 in 10.0 mi NE 3.5 mph - N/A   Clear
4:55 PM 55.0 °F - 42.8 °F 63% 30.26 in 10.0 mi NNE 11.5 mph - N/A   Clear
5:15 PM 52.7 °F - 42.4 °F 68% 30.26 in 10.0 mi NNE 9.2 mph 16.1 mph N/A   Clear
5:35 PM 51.3 °F - 42.1 °F 71% 30.27 in 10.0 mi North 10.4 mph - N/A   Clear
5:55 PM 50.0 °F - 41.7 °F 73% 30.27 in 10.0 mi NNE 9.2 mph - N/A   Clear
6:15 PM 48.7 °F - 41.4 °F 76% 30.28 in 10.0 mi NNE 9.2 mph - N/A   Clear
6:35 PM 47.7 °F - 41.0 °F 78% 30.29 in 10.0 mi NNE 6.9 mph - N/A   Clear
6:55 PM 46.9 °F - 41.0 °F 80% 30.29 in 10.0 mi NNE 6.9 mph - N/A   Clear
7:15 PM 46.4 °F 42.4 °F 41.0 °F 81% 30.30 in 10.0 mi NNE 8.1 mph - N/A   Clear
7:35 PM 45.9 °F 41.7 °F 41.4 °F 84% 30.30 in 10.0 mi NNE 8.1 mph - N/A   Clear
7:55 PM 45.5 °F 41.8 °F 41.4 °F 85% 30.31 in 10.0 mi NNE 6.9 mph - N/A   Clear
8:15 PM 45.0 °F 41.2 °F 41.0 °F 86% 30.31 in 10.0 mi NNE 6.9 mph - N/A   Clear
8:35 PM 44.6 °F 41.4 °F 41.0 °F 87% 30.31 in 10.0 mi NNE 5.8 mph - N/A   Clear
8:55 PM 44.6 °F 40.7 °F 41.0 °F 87% 30.32 in 10.0 mi NNE 6.9 mph - N/A   Clear
9:15 PM 44.6 °F 40.2 °F 41.0 °F 87% 30.32 in 10.0 mi NNE 8.1 mph - N/A   Clear
9:35 PM 44.6 °F 41.4 °F 41.0 °F 87% 30.33 in 10.0 mi NNE 5.8 mph - N/A   Clear
9:55 PM 44.1 °F 41.5 °F 41.0 °F 89% 30.33 in 10.0 mi NNE 4.6 mph - N/A   Clear
10:15 PM 44.1 °F 40.8 °F 41.0 °F 89% 30.33 in 10.0 mi NNE 5.8 mph - N/A   Clear
10:35 PM 43.7 °F 40.3 °F 41.0 °F 90% 30.33 in 10.0 mi NNE 5.8 mph - N/A   Clear
10:55 PM 44.1 °F 40.8 °F 41.2 °F 90% 30.33 in 10.0 mi NE 5.8 mph - N/A   Clear
11:15 PM 44.6 °F 39.7 °F 41.4 °F 88% 30.33 in 10.0 mi NE 9.2 mph - N/A   Clear
11:35 PM 44.1 °F 40.1 °F 41.0 °F 89% 30.34 in 10.0 mi NE 6.9 mph - N/A   Clear
11:55 PM 44.2 °F 39.7 °F 41.0 °F 88% 30.34 in 10.0 mi NNE 8.1 mph - N/A   Clear